Regional Weather Roundup
Issued by NWS

Home | Current Version | Previous Version | Text Only | Print | Product List | Glossary Off
Versions: 1 2 3 4 5 6 7 8 9 10 11 12 13 14 15 16 17 18 19 20 21 22 23 24 25 26 27 28 29 30 31 32 33 34 35 36 37 38 39 40 41 42 43 44 45 46 47 48 49 50

000
ASUS43 KFSD 261310
RWRSD

WEATHER ROUNDUP FOR SOUTH DAKOTA
NATIONAL WEATHER SERVICE SIOUX FALLS SD
800 AM CDT FRI MAY 26 2017

NOTE: "FAIR" INDICATES FEW OR NO CLOUDS BELOW 12,000 FEET WITH NO
SIGNIFICANT WEATHER AND/OR OBSTRUCTIONS TO VISIBILITY.


SDZ001>005-009-010-012>017-261400-
NORTHWEST AND NORTH CENTRAL SOUTH DAKOTA

CITY           SKY/WX    TMP DP  RH WIND       PRES   REMARKS
BUFFALO          N/A     49  37  63 W21G29    29.80R
FAITH            N/A     50  41  71 W12       29.85R
MOBRIDGE       MOSUNNY   54  42  64 W13       29.77R
$$

SDZ012>016-024>037-041>051-057-063-072>074-261400-
SOUTHWEST AND SOUTH CENTRAL SOUTH DAKOTA

CITY           SKY/WX    TMP DP  RH WIND       PRES   REMARKS
RAPID CTY ARPT MOSUNNY   53  34  48 NW5       29.90R
PIERRE         SUNNY     54  41  61 W14       29.82R
CUSTER         CLOUDY    42  26  53 NW6       29.93S
ELLSWORTH AFB  SUNNY     52  34  50 NW13      29.89R
PHILIP         SUNNY     49  41  74 W7        29.88R
PINE RIDGE     SUNNY     47  43  86 SW5       29.93R
SPEARFISH      FAIR      48  34  57 CALM      29.91S
WINNER         FAIR      53  43  68 NW9       29.87R
$$

SDZ004>011-016>023-039-040-261400-
NORTHEAST SOUTH DAKOTA

CITY           SKY/WX    TMP DP  RH WIND       PRES   REMARKS
ABERDEEN       SUNNY     54  43  66 W13       29.75R
WATERTOWN      MOSUNNY   52  46  80 W13       29.75R
BROOKINGS      PTSUNNY   54  48  80 NW12      29.76R
SISSETON         N/A     58  48  69 NW12      29.70R
$$

SDZ017-020-022-023-036>040-048>070-261400-
SOUTHEAST SOUTH DAKOTA

CITY           SKY/WX    TMP DP  RH WIND       PRES   REMARKS
SIOUX FALLS    CLOUDY    58  50  75 NW13G21   29.76R
HURON          MOSUNNY   55  46  71 NW15      29.79R
CHAMBERLAIN    MOSUNNY   54  45  72 W12G20    29.84R
MITCHELL       CLOUDY    56  46  69 NW13      29.81R
YANKTON          N/A     56  47  71 NW20G25   29.79R
$$

ABBREVIATIONS USED IN REMARKS
   TC - TEMPERATURE IN CELSIUS
  WCI - WIND CHILL INDEX
   HX - HEAT INDEX
  VSB - VISIBILITY





USA.gov is the U.S. government's official web portal to all federal, state and local government web resources and services.